Time,TemperatureF,DewpointF,PressureIn,WindDirection,WindDirectionDegrees,WindSpeedMPH,WindSpeedGustMPH,Humidity,HourlyPrecipIn,Conditions,Clouds,dailyrainin,SolarRadiationWatts/m^2,SoftwareType,DateUTC
2013-03-18 00:02:00,57.0,39.0,-100.00,SSE,151,6.0,8.0,50,0.00,,,0.00,1.000000,,2013-03-18 05:02:00,
2013-03-18 00:32:00,58.0,41.0,-100.00,SE,131,5.0,7.0,54,0.00,,,0.00,1.000000,,2013-03-18 05:32:00,
2013-03-18 00:43:00,58.0,41.0,-100.00,SE,131,5.0,7.0,54,0.00,,,0.00,1.000000,,2013-03-18 05:43:00,
2013-03-18 00:52:00,58.0,41.0,-100.00,SE,131,5.0,7.0,54,0.00,,,0.00,1.000000,,2013-03-18 05:52:00,
2013-03-18 01:02:00,58.0,41.0,-100.00,SE,131,5.0,7.0,54,0.00,,,0.00,1.000000,,2013-03-18 06:02:00,
2013-03-18 01:32:00,64.0,47.0,-100.00,NNE,27,5.0,24.0,53,0.00,,,0.00,1.000000,,2013-03-18 06:32:00,
2013-03-18 01:42:00,64.0,47.0,-100.00,NNE,27,5.0,24.0,53,0.00,,,0.00,1.000000,,2013-03-18 06:42:00,
2013-03-18 01:52:00,64.0,47.0,-100.00,NNE,27,5.0,24.0,53,0.00,,,0.00,1.000000,,2013-03-18 06:52:00,
2013-03-18 02:02:00,64.0,47.0,-100.00,NNE,27,5.0,24.0,53,0.00,,,0.00,1.000000,,2013-03-18 07:02:00,
2013-03-18 02:33:00,57.0,42.0,-100.00,SSE,154,5.0,7.0,58,0.00,,,0.00,1.000000,,2013-03-18 07:33:00,
2013-03-18 02:43:00,57.0,42.0,-100.00,SSE,154,5.0,7.0,58,0.00,,,0.00,1.000000,,2013-03-18 07:43:00,
2013-03-18 02:53:00,57.0,42.0,-100.00,SSE,154,5.0,7.0,58,0.00,,,0.00,1.000000,,2013-03-18 07:53:00,
2013-03-18 03:02:00,57.0,42.0,-100.00,SSE,154,5.0,7.0,58,0.00,,,0.00,1.000000,,2013-03-18 08:02:00,
2013-03-18 03:32:00,55.0,43.0,-100.00,West,271,4.0,7.0,63,0.00,,,0.00,1.000000,,2013-03-18 08:32:00,
2013-03-18 03:43:00,55.0,43.0,-100.00,West,271,4.0,7.0,63,0.00,,,0.00,1.000000,,2013-03-18 08:43:00,
2013-03-18 03:53:00,55.0,43.0,-100.00,West,271,4.0,7.0,63,0.00,,,0.00,1.000000,,2013-03-18 08:53:00,
2013-03-18 04:02:00,55.0,43.0,-100.00,West,271,4.0,7.0,63,0.00,,,0.00,1.000000,,2013-03-18 09:02:00,
2013-03-18 04:33:00,56.0,44.0,-100.00,ESE,108,5.0,6.0,63,0.00,,,0.00,1.000000,,2013-03-18 09:33:00,
2013-03-18 04:43:00,56.0,44.0,-100.00,ESE,108,5.0,6.0,63,0.00,,,0.00,1.000000,,2013-03-18 09:43:00,
2013-03-18 04:53:00,56.0,44.0,-100.00,ESE,108,5.0,6.0,63,0.00,,,0.00,1.000000,,2013-03-18 09:53:00,
2013-03-18 05:03:00,56.0,44.0,-100.00,ESE,108,5.0,6.0,63,0.00,,,0.00,1.000000,,2013-03-18 10:03:00,
2013-03-18 05:33:00,55.0,43.0,-100.00,NNE,16,1.0,5.0,65,0.00,,,0.00,1.000000,,2013-03-18 10:33:00,
2013-03-18 05:42:00,55.0,43.0,-100.00,NNE,16,1.0,5.0,65,0.00,,,0.00,1.000000,,2013-03-18 10:42:00,
2013-03-18 05:53:00,55.0,43.0,-100.00,NNE,16,1.0,5.0,65,0.00,,,0.00,1.000000,,2013-03-18 10:53:00,
2013-03-18 06:03:00,55.0,43.0,-100.00,NNE,16,1.0,5.0,65,0.00,,,0.00,1.000000,,2013-03-18 11:03:00,
2013-03-18 06:32:00,55.0,49.0,-100.00,NW,315,7.0,9.0,81,0.00,,,0.00,1.000000,,2013-03-18 11:32:00,
2013-03-18 06:43:00,55.0,49.0,-100.00,NW,315,7.0,9.0,81,0.00,,,0.00,1.000000,,2013-03-18 11:43:00,
2013-03-18 06:52:00,55.0,49.0,-100.00,NW,315,7.0,9.0,81,0.00,,,0.00,1.000000,,2013-03-18 11:52:00,
2013-03-18 07:02:00,55.0,49.0,-100.00,NW,315,7.0,9.0,81,0.00,,,0.00,1.000000,,2013-03-18 12:02:00,
2013-03-18 07:33:00,55.0,45.0,-100.00,NW,321,6.0,9.0,70,0.00,,,0.00,1.000000,,2013-03-18 12:33:00,
2013-03-18 07:43:00,55.0,45.0,-100.00,NW,321,6.0,9.0,70,0.00,,,0.00,1.000000,,2013-03-18 12:43:00,
2013-03-18 07:52:00,55.0,45.0,-100.00,NW,321,6.0,9.0,70,0.00,,,0.00,1.000000,,2013-03-18 12:52:00,
2013-03-18 08:02:00,55.0,45.0,-100.00,NW,321,6.0,9.0,70,0.00,,,0.00,1.000000,,2013-03-18 13:02:00,
2013-03-18 08:33:00,54.0,34.0,-100.00,NW,310,6.0,17.0,46,0.00,,,0.00,7.000000,,2013-03-18 13:33:00,
2013-03-18 08:42:00,54.0,34.0,-100.00,NW,310,6.0,17.0,46,0.00,,,0.00,7.000000,,2013-03-18 13:42:00,
2013-03-18 08:52:00,54.0,34.0,-100.00,NW,310,6.0,17.0,46,0.00,,,0.00,7.000000,,2013-03-18 13:52:00,
2013-03-18 09:02:00,54.0,34.0,-100.00,NW,310,6.0,17.0,46,0.00,,,0.00,7.000000,,2013-03-18 14:02:00,
2013-03-18 09:32:00,58.0,31.0,-100.00,WNW,287,9.0,15.0,35,0.00,,,0.00,142.000000,,2013-03-18 14:32:00,
2013-03-18 09:42:00,58.0,31.0,-100.00,WNW,287,9.0,15.0,35,0.00,,,0.00,142.000000,,2013-03-18 14:42:00,
2013-03-18 09:52:00,58.0,31.0,-100.00,WNW,287,9.0,15.0,35,0.00,,,0.00,142.000000,,2013-03-18 14:52:00,
2013-03-18 10:02:00,58.0,31.0,-100.00,WNW,287,9.0,15.0,35,0.00,,,0.00,142.000000,,2013-03-18 15:02:00,
2013-03-18 10:33:00,65.0,38.0,-100.00,NW,310,10.0,15.0,37,0.00,,,0.00,359.000000,,2013-03-18 15:33:00,
2013-03-18 10:43:00,65.0,38.0,-100.00,NW,310,10.0,15.0,37,0.00,,,0.00,359.000000,,2013-03-18 15:43:00,
2013-03-18 10:52:00,65.0,38.0,-100.00,NW,310,10.0,15.0,37,0.00,,,0.00,359.000000,,2013-03-18 15:52:00,
2013-03-18 11:03:00,65.0,38.0,-100.00,NW,310,10.0,15.0,37,0.00,,,0.00,359.000000,,2013-03-18 16:03:00,
2013-03-18 11:33:00,68.0,37.0,-100.00,NNW,332,14.0,19.0,32,0.00,,,0.00,537.000000,,2013-03-18 16:33:00,
2013-03-18 11:42:00,68.0,37.0,-100.00,NNW,332,14.0,19.0,32,0.00,,,0.00,537.000000,,2013-03-18 16:42:00,
2013-03-18 11:53:00,68.0,37.0,-100.00,NNW,332,14.0,19.0,32,0.00,,,0.00,537.000000,,2013-03-18 16:53:00,
2013-03-18 12:02:00,68.0,37.0,-100.00,NNW,332,14.0,19.0,32,0.00,,,0.00,537.000000,,2013-03-18 17:02:00,
2013-03-18 12:33:00,68.0,39.0,-100.00,North,5,9.0,20.0,35,0.00,,,0.00,704.000000,,2013-03-18 17:33:00,
2013-03-18 12:43:00,68.0,39.0,-100.00,North,5,9.0,20.0,35,0.00,,,0.00,704.000000,,2013-03-18 17:43:00,
2013-03-18 12:52:00,68.0,39.0,-100.00,North,5,9.0,20.0,35,0.00,,,0.00,704.000000,,2013-03-18 17:52:00,
2013-03-18 13:02:00,68.0,39.0,-100.00,North,5,9.0,20.0,35,0.00,,,0.00,704.000000,,2013-03-18 18:02:00,
2013-03-18 13:32:00,68.0,39.0,-100.00,NNE,29,11.0,17.0,35,0.00,,,0.00,806.000000,,2013-03-18 18:32:00,
2013-03-18 13:42:00,68.0,39.0,-100.00,NNE,29,11.0,17.0,35,0.00,,,0.00,806.000000,,2013-03-18 18:42:00,
2013-03-18 13:52:00,68.0,39.0,-100.00,NNE,29,11.0,17.0,35,0.00,,,0.00,806.000000,,2013-03-18 18:52:00,
2013-03-18 14:02:00,68.0,39.0,-100.00,NNE,29,11.0,17.0,35,0.00,,,0.00,806.000000,,2013-03-18 19:02:00,
2013-03-18 14:33:00,72.0,41.0,-100.00,North,351,8.0,21.0,33,0.00,,,-99.99,814.000000,,2013-03-18 19:33:00,
2013-03-18 14:42:00,72.0,41.0,-100.00,North,351,8.0,21.0,33,0.00,,,-99.99,814.000000,,2013-03-18 19:42:00,
2013-03-18 14:52:00,72.0,41.0,-100.00,North,351,8.0,21.0,33,0.00,,,-99.99,814.000000,,2013-03-18 19:52:00,
2013-03-18 15:02:00,72.0,41.0,-100.00,North,351,8.0,21.0,33,0.00,,,-99.99,814.000000,,2013-03-18 20:02:00,
2013-03-18 15:33:00,74.0,41.0,-100.00,NNW,346,9.0,13.0,31,0.00,,,0.00,752.000000,,2013-03-18 20:33:00,
2013-03-18 15:43:00,74.0,41.0,-100.00,NNW,346,9.0,13.0,31,0.00,,,0.00,752.000000,,2013-03-18 20:43:00,
2013-03-18 15:52:00,74.0,41.0,-100.00,NNW,346,9.0,13.0,31,0.00,,,0.00,752.000000,,2013-03-18 20:52:00,
2013-03-18 16:02:00,74.0,41.0,-100.00,NNW,346,9.0,13.0,31,0.00,,,0.00,752.000000,,2013-03-18 21:02:00,
2013-03-18 16:33:00,75.0,40.0,-100.00,North,1,6.0,13.0,28,0.00,,,0.00,690.000000,,2013-03-18 21:33:00,
2013-03-18 16:43:00,75.0,40.0,-100.00,North,1,6.0,13.0,28,0.00,,,0.00,690.000000,,2013-03-18 21:43:00,
2013-03-18 16:53:00,75.0,40.0,-100.00,North,1,6.0,13.0,28,0.00,,,0.00,690.000000,,2013-03-18 21:53:00,
2013-03-18 17:03:00,75.0,40.0,-100.00,North,1,6.0,13.0,28,0.00,,,0.00,690.000000,,2013-03-18 22:03:00,
2013-03-18 17:33:00,75.0,39.0,-100.00,NW,306,10.0,15.0,27,0.00,,,0.00,462.000000,,2013-03-18 22:33:00,
2013-03-18 17:42:00,75.0,39.0,-100.00,NW,306,10.0,15.0,27,0.00,,,0.00,462.000000,,2013-03-18 22:42:00,
2013-03-18 17:53:00,75.0,39.0,-100.00,NW,306,10.0,15.0,27,0.00,,,0.00,462.000000,,2013-03-18 22:53:00,
2013-03-18 18:03:00,75.0,39.0,-100.00,NW,306,10.0,15.0,27,0.00,,,0.00,462.000000,,2013-03-18 23:03:00,
2013-03-18 18:33:00,72.0,40.0,-100.00,NW,319,9.0,17.0,31,0.00,,,0.00,313.000000,,2013-03-18 23:33:00,
2013-03-18 18:43:00,72.0,40.0,-100.00,NW,319,9.0,17.0,31,0.00,,,0.00,313.000000,,2013-03-18 23:43:00,
2013-03-18 18:53:00,72.0,40.0,-100.00,NW,319,9.0,17.0,31,0.00,,,0.00,313.000000,,2013-03-18 23:53:00,
2013-03-18 19:02:00,72.0,40.0,-100.00,NW,319,9.0,17.0,31,0.00,,,0.00,313.000000,,2013-03-19 00:02:00,
2013-03-18 20:33:00,67.0,44.0,-100.00,NNE,23,6.0,8.0,43,-99.99,,,0.00,25.000000,,2013-03-19 01:33:00,
2013-03-18 20:43:00,67.0,44.0,-100.00,NNE,23,6.0,8.0,43,-99.99,,,0.00,25.000000,,2013-03-19 01:43:00,
2013-03-18 20:52:00,67.0,44.0,-100.00,NNE,23,6.0,8.0,43,-99.99,,,0.00,25.000000,,2013-03-19 01:52:00,
2013-03-18 21:02:00,67.0,44.0,-100.00,NNE,23,6.0,8.0,43,-99.99,,,0.00,25.000000,,2013-03-19 02:02:00,
2013-03-18 21:33:00,63.0,40.0,-100.00,ENE,73,8.0,10.0,42,0.00,,,0.00,1.000000,,2013-03-19 02:33:00,
2013-03-18 21:43:00,63.0,40.0,-100.00,ENE,73,8.0,10.0,42,0.00,,,0.00,1.000000,,2013-03-19 02:43:00,
2013-03-18 21:53:00,63.0,40.0,-100.00,ENE,73,8.0,10.0,42,0.00,,,0.00,1.000000,,2013-03-19 02:53:00,
2013-03-18 22:02:00,63.0,40.0,-100.00,ENE,73,8.0,10.0,42,0.00,,,0.00,1.000000,,2013-03-19 03:02:00,
2013-03-18 22:33:00,61.0,40.0,-100.00,ENE,74,10.0,13.0,45,0.00,,,0.00,1.000000,,2013-03-19 03:33:00,
2013-03-18 22:43:00,61.0,40.0,-100.00,ENE,74,10.0,13.0,45,0.00,,,0.00,1.000000,,2013-03-19 03:43:00,
2013-03-18 22:54:00,61.0,40.0,-100.00,ENE,74,10.0,13.0,45,0.00,,,0.00,1.000000,,2013-03-19 03:54:00,
2013-03-18 23:03:00,61.0,40.0,-100.00,ENE,74,10.0,13.0,45,0.00,,,0.00,1.000000,,2013-03-19 04:03:00,
2013-03-18 23:34:00,57.0,39.0,-100.00,East,89,8.0,10.0,50,0.00,,,0.00,1.000000,,2013-03-19 04:34:00,
2013-03-18 23:43:00,57.0,39.0,-100.00,East,89,8.0,10.0,50,0.00,,,0.00,1.000000,,2013-03-19 04:43:00,
2013-03-18 23:53:00,57.0,39.0,-100.00,East,89,8.0,10.0,50,0.00,,,0.00,1.000000,,2013-03-19 04:53:00,